sat.trackr.live / text

‹ back to catalog

STARLINK-32041

NORAD 60202 · 2024-124V

PAYLOAD ACTIVE UNKNOWN

§ Identity

Operator
Country
US
Launch date
2024-07-03
Launch site
AFETR
Launch vehicle
Mass (kg)
RCS (m²)

Purposes: comms

External: N2YO · Heavens-Above · Gunter

§ Orbital elements

Epoch: 2026-09-21T21:11:28.909536Z

Period
94.01 min
Inclination
53.1593°
Eccentricity
0.0001333
Mean motion
15.31695576 rev/d
Perigee alt
469.8 km
Apogee alt
471.7 km
Semi-major
6,848.9 km
B*
2.0255e-5
RAAN
129.7855°
Arg perigee
96.3593°
Mean anomaly
263.7560°
Rev number
12,555

§ Raw data

STARLINK-320411 60202U 24124V   26264.88297349  .00000263  00000+0  20255-4 0  99912 60202  53.1593 129.7855 0001333  96.3593 263.7560 15.31695576125555

JSON: /api/v1/satellites/60202 · /tle

For live sub-satellite position, see the globe view (requires WebGL).

§ Visibility from observer

Set your observer location to see the next 7 days of passes ≥ 10°. The values pass through the URL so the page stays shareable.

No JS? Fill the form by hand. The geolocation button needs JavaScript.